Regional Weather Roundup
Issued by NWS Sioux Falls, SD

Home | Current Version | Previous Version | Text Only | Print | Product List | Glossary On
Versions: 1 2 3 4 5 6 7 8 9 10 11 12 13 14 15 16 17 18 19 20 21 22 23 24 25 26 27 28 29 30 31 32 33 34 35 36 37 38 39 40 41 42 43 44 45 46 47 48 49 50
000
ASUS43 KFSD 290802
RWRFSD

WEATHER ROUNDUP FOR SE SOUTH DAKOTA/SW MINNESOTA/NW IOWA
NATIONAL WEATHER SERVICE SIOUX FALLS SD
300 AM CDT FRI APR 29 2016

NOTE: "FAIR" INDICATES FEW OR NO CLOUDS BELOW 12,000 FEET WITH NO
SIGNIFICANT WEATHER AND OR OBSTRUCTIONS TO VISIBILITY.


SDZ038>040-050-052>070-290900-
SOUTHEAST SOUTH DAKOTA

CITY           SKY/WX    TMP DP  RH WIND       PRES   REMARKS
BROOKINGS      CLOUDY    36  34  92 CALM      30.14R
CHAMBERLAIN    NOT AVBL
HURON          CLOUDY    38  36  92 NW3       30.15F
MADISON        CLOUDY    37  37 100 E6        30.13S
MITCHELL       CLOUDY    40  37  89 NE3       30.15F
SIOUX FALLS    CLOUDY    39  37  92 CALM      30.13S FOG
WINNER         CLOUDY    42  39  89 CALM      30.12S
YANKTON        CLOUDY    39  37  93 E5        30.13F
$$

MNZ071-072-080-081-089-090-097-098-290900-
SOUTHWEST MINNESOTA

CITY           SKY/WX    TMP DP  RH WIND       PRES   REMARKS
FAIRMONT       CLOUDY    39  30  70 CALM      30.12S
JACKSON        CLOUDY    39  36  87 NE3       30.13R FOG
LUVERNE        CLOUDY    37  34  87 E5        30.13F
MARSHALL       NOT AVBL
MONTEVIDEO     CLOUDY    39  39 100 CALM      30.17S
PIPESTONE      CLOUDY    37  36  93 NE5       30.13R
REDWOOD FALLS  PTCLDY    36  34  92 CALM      30.14S
TRACY          CLOUDY    36  35  98 CALM      30.14S
WINDOM         CLOUDY    37  37 100 CALM      30.13S FOG
WORTHINGTON    CLOUDY    38  36  92 NE5       30.13S
$$

IAZ001>003-012>014-020>022-031-032-NEZ013-014-SDZ071-290900-
NORTHWEST IOWA

CITY           SKY/WX    TMP DP  RH WIND       PRES   REMARKS
DENISON        CLOUDY    43  41  93 CALM      30.09F
ESTHERVILLE    CLOUDY    39  37  92 NE3       30.12R
SIOUX CITY     CLOUDY    43  39  86 NE5       30.13F
SPENCER        CLOUDY    40  36  86 NE3       30.12F
STORM LAKE     CLOUDY    39  39 100 N5        30.11F
$$

ABBREVIATIONS USED IN REMARKS
   TC - TEMPERATURE IN CELSIUS
  WCI - WIND CHILL INDEX
   HX - HEAT INDEX
  VSB - VISIBILITY





USA.gov is the U.S. government's official web portal to all federal, state and local government web resources and services.